Location: Rehoboth Beach
(38.7438°N, 75.1341°W)
Time: 08:50:32
(UTC-04:00)

Hubble Space Telescope - Visible Passes

Search period start: 03 May 2015 00:00
Search period end: 13 May 2015 00:00
Orbit: 542 x 546 km, 28.5° (Epoch: 03 May)

Date Brightness Start Highest point End Pass type
(mag) Time Alt. Az. Time Alt. Az. Time Alt. Az.
03 May 2.9 21:53:36 10° SW 21:54:57 16° SSW 21:54:57 16° SSW visible
04 May 2.6 21:44:57 10° SW 21:47:00 18° SSW 21:47:00 18° SSW visible
05 May 2.5 21:36:21 10° SW 21:38:57 18° SSW 21:38:57 18° SSW visible
06 May 2.5 21:27:48 10° SW 21:30:36 17° S 21:30:51 17° S visible
07 May 2.7 21:19:20 10° SW 21:21:54 16° S 21:22:43 15° S visible
08 May 2.9 21:10:58 10° SW 21:13:11 14° SSW 21:14:34 12° S visible
09 May 3.0 21:02:48 10° SW 21:04:29 12° SSW 21:06:06 10° S visible
10 May 3.3 20:55:32 10° SSW 20:55:46 10° SSW 20:55:54 10° SSW visible
